Location: Rowland
(34.5359°N, 79.2929°W)
Time: 18:39:56
(UTC+00:00)

Transit 2A - Pass Details

Date: 12 October 2022
Orbit: 598 x 959 km, 66.7° (Epoch: 02 December)

Event Time Altitude Azimuth Distance (km) Brightness Sun altitude
Rises 10:54:46 0° 337° (NNW) 3,033 8.8 -6.1°
Reaches altitude 10° 10:57:01 10° 341° (NNW) 2,164 8.1 -5.6°
Maximum altitude 11:01:55 63° 62° (ENE) 834 6.5 -4.6°
Drops below altitude 10° 11:07:20 10° 144° (SE) 2,391 9.3 -3.5°
Sets 11:09:55 0° 147° (SSE) 3,379 10.0 -3.0°
